[[{"header":{"parameterUnit":"m.s-1","parameterCategory":1,"la1":30.2991,"la2":30.254,"lo1":-89.0895,"lo2":-89.0444,"dy":0.0017,"dx":0.0017,"nx":28,"ny":28,"refTime":"2025-05-18T21:00:00:Z","depth":0,"parameterNumber":2,"parameterNumberName":"U-component_of_WINDS"},"data":[0,0,0,0,0,0,0,0,0,0,0,0,0,0,0,0,0,0,0,0,0,0,0,0,0,0,0,0,0,0,0,0,0,0,0,0,0,0,0,0,0,0,0,0,0,0,0,0,0,0,0,0,0,0,0,0,0,0,-1.3062,-1.3063,0,-1.3157,-1.3158,-1.3159,-1.3205,-1.3205,-1.3205,-1.3205,-1.3305,-1.3308,-1.3311,0,0,0,0,0,0,0,0,0,0,0,0,0,-1.2927,-1.2929,-1.3062,-1.3063,-1.3065,-1.3157,-1.3158,-1.3159,-1.3205,-1.3205,-1.3205,-1.3205,-1.3304,-1.3308,-1.3311,0,0,0,0,0,0,0,0,0,0,0,0,0,-1.3,-1.293,-1.3062,-1.3098,-1.3102,-1.3156,-1.3158,-1.316,-1.3205,-1.3205,-1.3205,-1.3205,-1.3303,-1.3307,-1.3311,-1.3338,0,0,-1.3324,-1.3326,0,0,0,0,0,0,0,0,-1.2996,-1.3005,-1.3092,-1.3096,-1.3101,-1.3169,-1.3147,-1.3219,-1.3205,-1.3166,-1.3205,-1.3205,-1.326,-1.3268,-1.3286,-1.3342,-1.3347,-1.3324,-1.3327,-1.3328,-1.333,0,0,0,0,0,0,0,-1.2991,-1.3001,-1.31,-1.3093,-1.3098,-1.3112,-1.3122,-1.3161,-1.3212,-1.3169,-1.3173,-1.3183,-1.3263,-1.3282,-1.3289,-1.3348,-1.3324,-1.3328,-1.333,-1.3332,-1.3434,-1.3434,0,0,0,0,0,0,-1.2979,-1.2997,-1.3097,-1.3103,-1.3047,-1.3114,-1.3126,-1.3147,-1.3212,-1.3222,-1.3183,-1.3185,-1.3275,-1.3284,-1.3292,-1.3329,-1.3328,-1.3332,-1.3335,-1.3434,-1.3434,-1.3434,0,0,0,0,0,0,-1.2976,-1.2987,-1.3093,-1.3051,-1.3065,-1.3117,-1.314,-1.3149,-1.3168,-1.3223,-1.3232,-1.3193,-1.3275,-1.3287,-1.3326,-1.3333,-1.3334,-1.3338,-1.3433,-1.3434,-1.3434,-1.34,0,0,0,0,0,0,-1.2972,-1.2986,-1.2995,-1.305,-1.3067,-1.3123,-1.3141,-1.3151,-1.3175,-1.3178,-1.3234,-1.3244,-1.3276,-1.332,-1.333,-1.3338,-1.3341,-1.3433,-1.3434,-1.3434,-1.3401,-1.34,-1.3398,0,0,0,0,0,-1.2967,-1.2982,-1.2995,-1.3007,-1.3079,-1.3124,-1.3133,-1.3169,-1.3175,-1.3185,-1.3221,-1.3242,-1.333,-1.3324,-1.3336,-1.3345,-1.3433,-1.3433,-1.3434,-1.3402,-1.34,-1.3398,0,0,0,0,0,0,-1.2927,-1.299,-1.3005,-1.3038,-1.3075,-1.3131,-1.3145,-1.3166,-1.3203,-1.3205,-1.3249,-1.3262,-1.3298,-1.3326,-1.3317,-1.3375,-1.3384,-1.3387,-1.3355,-1.3354,-1.3352,-1.3345,-1.3344,0,0,0,0,0,-1.2921,-1.2951,-1.3005,-1.3029,-1.3047,-1.3093,-1.3114,-1.3138,-1.3179,-1.3195,-1.3234,-1.3273,-1.3311,-1.3334,-1.3371,-1.3406,-1.342,-1.3419,-1.3417,-1.3416,-1.3418,-1.344,-1.3441,-1.3436,-1.3436,-1.3436,0,0,-1.2911,-1.295,-1.2965,-1.3022,-1.3054,-1.3085,-1.3106,-1.3138,-1.3162,-1.3201,-1.324,-1.327,-1.3318,-1.3356,-1.3374,-1.338,-1.3422,-1.3416,-1.3415,-1.3418,-1.3441,-1.3441,-1.3442,-1.3437,-1.3437,-1.3437,0,0,-1.2909,-1.294,-1.2964,-1.2996,-1.3043,-1.3074,-1.308,-1.3134,-1.3155,-1.3195,-1.3225,-1.3256,-1.3318,-1.3352,-1.3377,-1.339,-1.3411,-1.3401,-1.3393,-1.3415,-1.3415,-1.3416,-1.3421,-1.3423,-1.3403,-1.3403,-1.3403,0,-1.2891,-1.2937,-1.2975,-1.3005,-1.303,-1.3066,-1.3093,-1.3122,-1.3179,-1.3197,-1.3202,-1.3283,-1.3318,-1.3365,-1.3368,-1.3387,-1.3397,-1.3394,-1.3412,-1.3413,-1.3414,-1.342,-1.3422,-1.3401,-1.3402,-1.3402,-1.3402,0,-1.2913,-1.2945,-1.296,-1.3013,-1.304,-1.3068,-1.3112,-1.3136,-1.3159,-1.319,-1.3232,-1.3275,-1.3323,-1.3336,-1.3359,-1.3387,-1.3389,-1.3403,-1.3412,-1.3412,-1.3418,-1.3421,-1.3399,-1.34,-1.34,-1.3401,0,0,-1.2886,-1.2961,-1.2966,-1.2992,-1.3048,-1.3074,-1.3106,-1.3151,-1.3171,-1.321,-1.3239,-1.3292,-1.3305,-1.3334,-1.3362,-1.3381,-1.339,-1.3392,-1.3394,-1.3391,-1.3426,-1.3415,-1.3417,-1.3405,-1.3406,-1.3406,-1.3422,0,-1.2892,-1.2947,-1.2983,-1.3025,-1.3056,-1.3093,-1.312,-1.3159,-1.3189,-1.3222,-1.3257,-1.3294,-1.3309,-1.3326,-1.3347,-1.3384,-1.3398,-1.3384,-1.3433,-1.3435,-1.3419,-1.342,-1.3408,-1.3421,-1.3424,-1.3425,-1.3425,0,-1.2905,-1.2942,-1.2987,-1.3041,-1.3056,-1.308,-1.3125,-1.3156,-1.3202,-1.3223,-1.3256,-1.3284,-1.3321,-1.3328,-1.3381,-1.3371,-1.3394,-1.3416,-1.3417,-1.3423,-1.3429,-1.3426,-1.3426,-1.3427,-1.3429,-1.3429,-1.3429,0,-1.2881,-1.2943,-1.2979,-1.2999,-1.3064,-1.308,-1.3108,-1.3153,-1.3179,-1.322,-1.3238,-1.3283,-1.3307,-1.3343,-1.3383,-1.3385,-1.3433,-1.3443,-1.3453,-1.3452,-1.346,-1.3459,-1.3464,-1.3475,-1.3475,-1.3475,-1.3475,0,-1.2884,-1.291,-1.2969,-1.299,-1.3022,-1.3064,-1.3095,-1.3126,-1.3167,-1.3197,-1.3232,-1.326,-1.3312,-1.3347,-1.338,-1.342,-1.3431,-1.345,-1.3458,-1.3447,-1.3444,-1.3462,-1.3462,-1.3476,-1.3476,-1.3475,-1.3475,0,-1.2862,-1.2902,-1.2943,-1.3001,-1.3016,-1.3037,-1.3088,-1.3111,-1.3145,-1.3182,-1.3194,-1.3247,-1.329,-1.3334,-1.3393,-1.3415,-1.3454,-1.3466,-1.3438,-1.3443,-1.345,-1.3449,-1.3466,-1.3471,-1.3479,-1.3479,-1.3479,0,-1.286,-1.2881,-1.2941,-1.2963,-1.299,-1.3025,-1.3052,-1.3096,-1.3122,-1.3177,-1.3195,-1.3241,-1.3279,-1.3347,-1.3392,-1.3438,-1.3451,-1.3454,-1.3458,-1.3447,-1.3452,-1.345,-1.3453,-1.3452,-1.3452,-1.3452,-1.3451,0,-1.2854,-1.2873,-1.2909,-1.2952,-1.2983,-1.302,-1.3058,-1.3075,-1.3127,-1.3155,-1.3199,-1.3229,-1.329,-1.3336,-1.3387,-1.3419,-1.3444,-1.345,-1.3455,-1.3443,-1.3426,-1.3436,-1.3434,-1.3449,-1.3449,-1.3449,-1.345,-1.345,-1.2843,-1.2864,-1.2909,-1.2949,-1.2982,-1.3018,-1.3043,-1.308,-1.3117,-1.3168,-1.3193,-1.3237,-1.3286,-1.3358,-1.3389,-1.3426,-1.3433,-1.344,-1.3441,-1.3442,-1.344,-1.342,-1.3436,-1.3436,-1.3436,-1.3436,-1.3436,0,-1.2838,-1.287,-1.2906,-1.2958,-1.299,-1.301,-1.3054,-1.308,-1.3118,-1.3161,-1.3198,-1.325,-1.3296,-1.3345,-1.3393,-1.3414,-1.3427,-1.3425,-1.3424,-1.3431,-1.343,-1.3421,-1.3414,-1.3414,-1.3414,-1.3414,-1.3414,-1.3414,-1.284,-1.2876,-1.2902,-1.2956,-1.2989,-1.3031,-1.3055,-1.3089,-1.3123,-1.3179,-1.3216,-1.3247,-1.3293,-1.3346,-1.3389,-1.3403,-1.342,-1.3414,-1.3431,-1.3429,-1.3431,-1.3433,-1.3424,-1.3417,-1.3417,-1.3429,-1.3429,-1.3429]},{"header":{"parameterUnit":"m.s-1","parameterCategory":1,"la1":30.2991,"la2":30.254,"lo1":-89.0895,"lo2":-89.0444,"dy":0.0017,"dx":0.0017,"nx":28,"ny":28,"refTime":"2025-05-18T21:00:00:Z","depth":0,"parameterNumber":3,"parameterNumberName":"V-component_of_WINDS"},"data":[0,0,0,0,0,0,0,0,0,0,0,0,0,0,0,0,0,0,0,0,0,0,0,0,0,0,0,0,0,0,0,0,0,0,0,0,0,0,0,0,0,0,0,0,0,0,0,0,0,0,0,0,0,0,0,0,0,0,4.6641,4.6641,0,4.6593,4.6593,4.6592,4.6513,4.6512,4.651,4.6509,4.6462,4.6463,4.6463,0,0,0,0,0,0,0,0,0,0,0,0,0,4.6666,4.6666,4.6641,4.6641,4.664,4.6594,4.6593,4.6592,4.6513,4.6512,4.651,4.6508,4.6462,4.6462,4.6463,0,0,0,0,0,0,0,0,0,0,0,0,0,4.6641,4.6666,4.6642,4.6595,4.6591,4.6594,4.6593,4.6592,4.6514,4.6512,4.6509,4.6507,4.6462,4.6462,4.6463,4.6508,0,0,4.6463,4.6463,0,0,0,0,0,0,0,0,4.6642,4.664,4.6603,4.6598,4.6593,4.6557,4.6584,4.6564,4.6514,4.6543,4.6509,4.6506,4.6496,4.6493,4.6489,4.6506,4.6504,4.6463,4.6463,4.6463,4.6464,0,0,0,0,0,0,0,4.6644,4.6642,4.6622,4.6602,4.6596,4.6577,4.6571,4.658,4.6532,4.654,4.6534,4.653,4.6493,4.6489,4.6487,4.6503,4.6463,4.6463,4.6464,4.6464,4.6554,4.6556,0,0,0,0,0,0,4.6652,4.6644,4.6624,4.6621,4.6613,4.6579,4.6572,4.6571,4.6532,4.6524,4.6532,4.6526,4.649,4.6487,4.6485,4.6535,4.6463,4.6464,4.6464,4.6551,4.6554,4.6556,0,0,0,0,0,0,4.6653,4.6651,4.6626,4.6631,4.6626,4.6581,4.658,4.6571,4.6567,4.6525,4.6517,4.6536,4.6488,4.6485,4.6502,4.6532,4.6464,4.6464,4.6549,4.6552,4.6555,4.6636,0,0,0,0,0,0,4.6654,4.6652,4.6669,4.6632,4.6626,4.6644,4.6582,4.6572,4.6567,4.656,4.6528,4.652,4.6486,4.6503,4.6503,4.6531,4.6464,4.6546,4.655,4.6554,4.663,4.6641,4.6651,0,0,0,0,0,4.6656,4.6694,4.667,4.6668,4.6645,4.6646,4.6642,4.6601,4.657,4.6586,4.6559,4.6521,4.6529,4.6505,4.6505,4.6534,4.6544,4.6549,4.6554,4.6625,4.6639,4.6651,0,0,0,0,0,0,4.6737,4.6688,4.6661,4.6689,4.6672,4.6632,4.6651,4.6617,4.661,4.6603,4.6553,4.6547,4.657,4.6554,4.6528,4.6575,4.653,4.6536,4.6585,4.6598,4.6608,4.6612,4.6464,0,0,0,0,0,4.6758,4.6762,4.6719,4.6748,4.674,4.6698,4.6696,4.6666,4.6647,4.6639,4.6614,4.6597,4.6595,4.6596,4.6592,4.6627,4.6619,4.6647,4.6658,4.6666,4.6672,4.6688,4.67,4.6573,4.6573,4.6573,0,0,4.6802,4.6776,4.6781,4.6763,4.6746,4.6752,4.6692,4.67,4.6704,4.6641,4.6655,4.6636,4.6614,4.664,4.665,4.6627,4.6705,4.6673,4.668,4.668,4.6695,4.6707,4.6717,4.6577,4.6576,4.6576,0,0,4.6884,4.6865,4.6886,4.687,4.6845,4.6816,4.6821,4.6787,4.6771,4.6784,4.6737,4.6741,4.6739,4.6725,4.6718,4.6794,4.6759,4.6794,4.6849,4.6866,4.6876,4.6885,4.6911,4.6922,4.68,4.68,4.68,0,4.6942,4.6947,4.6902,4.6912,4.6905,4.6847,4.6869,4.6856,4.6831,4.6828,4.6802,4.6798,4.678,4.6802,4.682,4.6816,4.6821,4.6798,4.6878,4.6886,4.6894,4.6919,4.6929,4.6804,4.6804,4.6803,4.6803,0,4.7019,4.7024,4.7044,4.702,4.7016,4.7032,4.6989,4.699,4.696,4.6934,4.6948,4.6924,4.6914,4.6916,4.6888,4.6934,4.692,4.6887,4.6841,4.6911,4.6933,4.6943,4.6811,4.6809,4.6808,4.6807,0,0,4.7153,4.7103,4.7111,4.7099,4.7067,4.7069,4.7083,4.7072,4.7073,4.7058,4.7068,4.7068,4.7036,4.7028,4.6997,4.7012,4.7073,4.6977,4.6975,4.6995,4.7122,4.7148,4.7159,4.7049,4.7051,4.7052,4.7124,0,4.7228,4.7247,4.7206,4.7235,4.7238,4.7183,4.7194,4.7176,4.7152,4.7151,4.7125,4.7125,4.7084,4.7078,4.709,4.7063,4.7098,4.7058,4.7058,4.7059,4.7065,4.7171,4.7198,4.7267,4.7133,4.7134,4.7135,0,4.7319,4.7307,4.7337,4.7301,4.7301,4.7312,4.7298,4.7299,4.7276,4.7258,4.7248,4.7211,4.7222,4.7178,4.7192,4.7165,4.7163,4.715,4.7151,4.715,4.7101,4.7173,4.7288,4.7299,4.7149,4.7148,4.7147,0,4.7413,4.7405,4.7421,4.7412,4.7372,4.7381,4.7365,4.734,4.7336,4.7324,4.7321,4.7311,4.7306,4.7299,4.726,4.7232,4.7279,4.7232,4.7264,4.7265,4.7277,4.7277,4.7394,4.7276,4.7276,4.7275,4.7275,0,4.7502,4.7522,4.7462,4.7472,4.7493,4.7445,4.7467,4.7445,4.7424,4.7429,4.7381,4.7387,4.7335,4.7336,4.7306,4.7321,4.732,4.7305,4.7297,4.7309,4.7311,4.7307,4.7302,4.7278,4.7277,4.7277,4.7276,0,4.7611,4.7571,4.7585,4.7545,4.7535,4.7553,4.7518,4.7526,4.7498,4.7505,4.7504,4.7461,4.7459,4.7419,4.7409,4.7389,4.7417,4.74,4.7424,4.7419,4.7453,4.7451,4.7572,4.7585,4.7459,4.7461,4.7462,0,4.767,4.7684,4.7645,4.7644,4.763,4.763,4.7625,4.7578,4.7575,4.755,4.7561,4.7554,4.7547,4.7546,4.7514,4.7505,4.7488,4.7531,4.7486,4.7498,4.7488,4.7488,4.7489,4.754,4.7542,4.7543,4.7544,0,4.7779,4.7759,4.7753,4.774,4.7736,4.7724,4.7709,4.7711,4.766,4.7659,4.7655,4.7649,4.7638,4.7632,4.7617,4.7601,4.7565,4.7558,4.7565,4.7578,4.7592,4.7585,4.745,4.7556,4.7555,4.7554,4.7553,4.7553,4.7865,4.7874,4.7848,4.7843,4.7827,4.7813,4.7818,4.7791,4.7786,4.7773,4.7746,4.7746,4.7723,4.7699,4.7686,4.7686,4.7664,4.7674,4.7677,4.768,4.7687,4.7592,4.7683,4.7683,4.7683,4.7682,4.7682,0,4.7972,4.7952,4.7947,4.7927,4.7923,4.7888,4.7869,4.7868,4.7869,4.785,4.7843,4.7838,4.7832,4.7799,4.7789,4.7796,4.7779,4.7795,4.7794,4.7791,4.7707,4.7702,4.7809,4.7809,4.7809,4.7809,4.7809,4.7808,4.8027,4.8041,4.8017,4.8022,4.8001,4.8001,4.7993,4.7981,4.7965,4.7962,4.7956,4.7934,4.7909,4.7897,4.789,4.788,4.7879,4.7901,4.7886,4.7809,4.7797,4.7785,4.778,4.7901,4.7901,4.7969,4.7969,4.797]}]]